FENGYUN 1C DEB

Satellite information

Favourite Embed

Satellite Type and Status

DEBRISIN ORBIT

Key statistics

Satellite FENGYUN 1C DEB at a glance.

Uptime

9493

Days in orbit

Revolutions

≈ 14.4

Per day

Orbit

SSO

Sun Synchronous Orbit

Inclination

98.9

Latest

Satellite identification and parameters

Extended collection of information and parameters for FENGYUN 1C DEB.

Object identification

Identified? True

Debris? True

Object name: FENGYUN 1C DEB

International designator: 1999-025QV

Object number (NORAD): 30092

Object ID (CCSDS): 30092

Country: PEOPLES REPUBLIC OF CHINA (PRC)

Current information (Y/N): Y

RCS size: SMALL

Orbital parameters

Period: 100.117 minutes

Inclination: 98.9155 deg

SMA: 7142.181 km

Apoapsis: 824.423 km

Periapsis: 703.669 km

RAAN: 296.5258 deg

Eccentricy: 0.0084536

Argument of periapsis: 181.588 deg

Mean anomaly: 330.6947 deg

Mean motion: 14.38323098 rev/day

Mean motion (dot): 0.00002714 rev/day2

B* drag term: 0.00087022 1/REarth

Two-line elements (TLE)

Creation date: May 6, 2025, 3:54 a.m.

Reference frame: TEME

Reference center: EARTH

Epoch: May 5, 2025, 10:52 p.m. UTC

TLE line 0: 0 FENGYUN 1C DEB

TLE line 1: 1 30092U 99025QV 25125.95346659 .00002714 00000-0 87022-3 0 9997

TLE line 2: 2 30092 98.9155 296.5258 0084536 181.5880 330.6947 14.38323098955740

Live tracking on map

Real-time ground track for satellite FENGYUN 1C DEB.

In-orbit conjunctions

A list of the most updated potential collisions computed for object FENGYUN 1C DEB.

Target Orbit TCA Probability of collision Miss distance Type
DELTA 1 DEB SSO 2025-04-12 07:04:01 0.0001009751 253.0 (m) DEBRIS
CZ-6A DEB LEO 2024-12-31 19:43:31 0.0001511778 170.0 (m) DEBRIS

Associated space launch

Chinese polar orbiting meteorological satellite

FENGYUN 1C DEB was lifted into orbit during the mission ‘Long March 4B | Feng Yun 1C’, on board a Long March 4B space rocket.

The launch took place on May 10, 1999, 1:33 a.m. from Launch Complex 7.

For more information about the launch, click the button.

Launch to space Long March 4B | Feng Yun 1C
Long March 4B | Feng Yun 1C

Agency: N/A

Status: Launch Successful

Launch date: May 10, 1999, 1:33 a.m. UTC

Rocket: Long March 4B

Launch pad: Launch Complex 7

Location: Taiyuan Satellite Launch Center, People's Republic of China

...

Latest news about this satellite

There are no fresh news available about this satellite. Check back as we update our databases every day.


Newsletter sign-up

Weekly statistics, charts and insights to help you stay on top of the space industry.